This is the latest recevied weather packets stored in our database for station/object KC1BRV. If no packets are shown the sender has not sent any weather packets the latest 10 day(s).
| Time | Temp. | Humidity | Pressure | Rain* | Wind** | Luminosity | Snow |
|---|---|---|---|---|---|---|---|
| 1777156415 | 8.33° C | 58% | 1018.4 hPa | 0 mm | - | 18 W/m² | - |
| 1777156112 | 8.89° C | 59% | 1018.5 hPa | 0 mm | - | 19 W/m² | - |
| 1777155809 | 8.89° C | 60% | 1018.4 hPa | 0 mm | - | 21 W/m² | - |
| 1777155509 | 8.89° C | 59% | 1018.4 hPa | 0 mm | - | 22 W/m² | - |
| 1777155207 | 8.89° C | 58% | 1018.4 hPa | 0 mm | - | 27 W/m² | - |
| 1777154904 | 8.89° C | 57% | 1018.4 hPa | 0 mm | - | 30 W/m² | - |
| 1777154600 | 9.44° C | 57% | 1018.3 hPa | 0 mm | - | 32 W/m² | - |
| 1777154296 | 9.44° C | 56% | 1018.1 hPa | 0 mm | - | 42 W/m² | - |
| 1777153992 | 9.44° C | 56% | 1018.4 hPa | 0 mm | - | 50 W/m² | - |
| 1777153688 | 9.44° C | 56% | 1018.1 hPa | 0 mm | - | 53 W/m² | - |
| 1777153384 | 9.44° C | 56% | 1017.9 hPa | 0 mm | - | 55 W/m² | - |
| 1777153080 | 10° C | 56% | 1018.1 hPa | 0 mm | - | 58 W/m² | - |
| 1777152777 | 10° C | 55% | 1017.9 hPa | 0 mm | - | 64 W/m² | - |
| 1777152474 | 10° C | 55% | 1018 hPa | 0 mm | - | 68 W/m² | - |
| 1777152170 | 10.56° C | 53% | 1018.1 hPa | 0 mm | - | 73 W/m² | - |
| 1777151865 | 10.56° C | 54% | 1017.9 hPa | 0 mm | - | 78 W/m² | - |
| 1777151561 | 10.56° C | 53% | 1017.9 hPa | 0 mm | - | 84 W/m² | - |
| 1777151257 | 10.56° C | 53% | 1018 hPa | 0 mm | - | 99 W/m² | - |
| 1777150953 | 10.56° C | 54% | 1017.9 hPa | 0 mm | - | 104 W/m² | - |
| 1777150648 | 10.56° C | 53% | 1017.9 hPa | 0 mm | - | 109 W/m² | - |
| 1777150344 | 10.56° C | 55% | 1017.7 hPa | 0 mm | - | 120 W/m² | - |
| 1777150041 | 10.56° C | 53% | 1017.9 hPa | 0 mm | - | 122 W/m² | - |
| 1777149737 | 10.56° C | 53% | 1017.9 hPa | 0 mm | - | 124 W/m² | - |
| 1777149435 | 11.11° C | 53% | 1017.8 hPa | 0 mm | - | 127 W/m² | - |
| 1777149130 | 11.11° C | 52% | 1017.9 hPa | 0 mm | - | 142 W/m² | - |
* Rain latest hour (hover to see other rain measurements)
** Current wind speed in m/s (hover to see current wind gust speed)